Weather observations for the past three days for
St. Mary's, St. Mary's Airport
Imperial (Metric)
Date Time (akdt) Wind (mph) Vis. (mi.) Weather Sky Cond. Temperature (ºF) Relative Humidity Wind Chill (°F) Heat Index (°F) Pressure Precipitation (in)
Air Dwpt 6 hour altimeter (in) sea level (mb) 1 hr 3 hr 6 hr
Max. Min.
19 09:56 S 8 10.00 Light Rain OVC004 45 43 46 42.1 93% 41 30.24 1024.8
19 08:56 S 6 10.00 Light Rain OVC004 44.1 43 96% 41 30.24 1024.8
19 07:56 S 5 2.00 Light Rain Fog/Mist OVC002 42.1 42.1 100% 40 30.24 1024.5
19 06:56 S 5 0.75 Light Rain Fog/Mist OVC002 43 43 100% 41 30.23 1024.5
19 05:56 SW 7 0.50 Light Rain Fog OVC002 44.1 43 96% 41 30.21 1023.8
19 04:56 SW 8 0.50 Light Rain Fog OVC002 44.1 44.1 100% 40 30.21 1023.7
19 03:56 SW 7 3.00 Light Rain Fog/Mist OVC002 46 46 51.1 46 100% 43 30.2 1023.3
19 02:56 SW 7 7.00 Light Rain OVC004 46 46 100% 43 30.2 1023.4
19 01:56 SW 8 10.00 Light Rain OVC004 46.9 46 97% 44 30.2 1023.2
19 00:56 SW 8 10.00 Light Rain OVC008 48 46 93% 45 30.19 1022.9
18 23:56 SW 9 10.00 Light Rain OVC012 48.9 46 90% 45 30.18 1022.6
18 22:56 SW 10 8.00 A Few Clouds FEW010 51.1 46.9 86% 30.16 1022.0
18 21:56 SW 12 10.00 Fair CLR 53.1 48 57 52 83% 30.15 1021.7
18 20:56 SW 12 7.00 Fair CLR 55 46.9 74% 30.13 1021.2
18 19:56 SW 12 10.00 Partly Cloudy SCT022 55.9 46.9 72% 30.13 1020.9
18 18:56 W 10 10.00 Mostly Cloudy BKN018 BKN100 55.9 48 75% 30.13 1021.0
18 17:56 SW 9 10.00 Partly Cloudy SCT016 54 46.9 77% 30.13 1020.9
18 16:56 SW 9 10.00 Overcast OVC016 53.1 46.9 80% 30.12 1020.7
18 15:56 SW 6 10.00 Light Rain BKN014 OVC110 52 46 52 46 80% 30.13 1020.8
18 14:56 W 12 10.00 Light Rain BKN012 OVC110 51.1 46 83% 30.11 1020.5
18 13:56 SW 10 10.00 Light Rain OVC012 50 46 86% 46 30.11 1020.3
18 12:56 W 7 10.00 Light Rain OVC010 50 45 83% 48 30.1 1020.0
18 11:56 W 7 10.00 Light Rain OVC006 46.9 45 93% 44 30.09 1019.7
18 10:56 W 6 10.00 Light Rain OVC004 46 45 96% 44 30.09 1019.6
18 09:56 W 9 10.00 Light Rain OVC004 46 44.1 46 45 93% 42 30.07 1019.1
18 08:56 NW 7 10.00 Light Rain BKN002 OVC007 45 44.1 97% 42 30.06 1018.5
18 07:56 W 6 10.00 Light Rain SCT004 BKN008 OVC014 45 44.1 97% 42 30.05 1018.3
18 06:56 W 7 10.00 Light Rain OVC004 45 44.1 97% 42 30.05 1018.2
18 05:56 W 8 10.00 Light Rain OVC007 45 44.1 97% 41 30.03 1017.6
18 04:56 W 5 10.00 Light Rain OVC005 45 44.1 97% 43 30.02 1017.4
18 03:56 W 9 10.00 Light Rain OVC007 45 44.1 50 44.1 97% 41 30.01 1017.1
18 02:56 Vrbl 5 10.00 Light Rain OVC005 45 44.1 97% 43 30.02 1017.2
18 01:56 W 8 10.00 Light Rain BKN009 BKN120 45 44.1 97% 41 30.01 1016.8
18 00:56 W 5 10.00 Light Rain CLR 45 43 93% 43 30 1016.6
17 23:56 W 7 10.00 Light Rain CLR 46.9 44.1 90% 44 29.99 1016.1
17 22:56 W 8 10.00 Light Rain CLR 48 45 89% 45 29.98 1015.9
17 21:56 NW 7 10.00 Light Rain FEW015 50 45 57 50 83% 48 29.97 1015.8
17 20:56 W 9 10.00 Fair CLR 52 44.1 75% 29.97 1015.4
17 19:56 NW 9 10.00 Fair CLR 53.1 43 69% 29.96 1015.2
17 18:56 NW 13 9.00 Fair CLR 55.9 41 57% 29.95 1015.0
17 17:56 NW 13 G 18 10.00 Partly Cloudy SCT035 57 43 60% 29.94 1014.6
17 16:56 NW 9 10.00 Mostly Cloudy BKN031 55 44.1 67% 29.94 1014.5
17 15:56 NW 9 10.00 Overcast SCT018 OVC025 54 46.9 54 46 77% 29.94 1014.6
17 14:56 NW 10 10.00 Overcast BKN015 OVC021 54 48.9 83% 29.93 1014.3
17 13:56 W 10 9.00 Overcast BKN018 BKN026 OVC032 54 46.9 77% 29.93 1014.0
17 12:56 NW 13 G 16 10.00 Mostly Cloudy BKN021 BKN026 53.1 46 77% 29.92 1013.9
17 11:56 NW 8 10.00 Light Rain OVC017 51.1 45 80% 29.92 1013.9
17 10:56 N 13 10.00 Overcast OVC015 48.9 44.1 83% 44 29.91 1013.7
17 09:56 NW 7 10.00 Light Rain FEW007 OVC015 46 43 46 39.9 89% 43 29.91 1013.5 0.01
17 08:56 NW 5 10.00 Light Rain OVC013 43 43 100% 41 29.9 1013.5
17 07:56 NW 5 0.25 Light Rain Fog FEW002 OVC013 41 39.9 96% 38 29.9 1013.2
17 06:56 NW 3 10.00 Light Rain FEW001 OVC017 39.9 39.9 100% 29.88 1012.8 0.01
17 05:56 NW 6 10.00 Light Rain OVC032 41 41 100% 38 29.88 1012.7 0.01
17 03:56 NW 6 0.50 Light Rain Fog BKN002 BKN009 OVC018 43 42.1 45 42.1 97% 40 29.88 1012.5
17 02:56 W 5 3.00 Light Rain Fog/Mist FEW006 OVC017 43 43 100% 41 29.87 1012.3
17 01:56 W 5 10.00 Light Rain OVC009 44.1 43 96% 42 29.87 1012.1
17 00:56 W 6 3.00 Light Rain Fog/Mist OVC004 44.1 43 96% 41 29.86 1011.9
16 23:56 W 9 10.00 Light Rain BKN004 OVC009 44.1 44.1 100% 40 29.86 1011.8
16 22:56 W 9 3.00 Light Rain Fog/Mist BKN003 OVC011 45 44.1 97% 41 29.85 1011.7
16 21:56 W 12 3.00 Light Rain Fog/Mist OVC005 45 44.1 48 45 97% 40 29.85 1011.6 0.01
16 20:56 W 10 10.00 Light Rain OVC005 45 44.1 97% 40 29.85 1011.5 0.01
16 19:56 W 12 9.00 Light Rain OVC010 46 43 89% 41 29.84 1011.3
16 18:56 W 15 10.00 Light Rain OVC014 46.9 42.1 83% 41 29.84 1011.3
16 17:56 W 12 10.00 Overcast BKN018 OVC023 46.9 41 80% 42 29.85 1011.4
16 16:56 W 14 10.00 Overcast OVC016 46 41 83% 40 29.85 1011.4
16 15:56 W 10 10.00 Overcast OVC016 46 41 46 43 83% 42 29.85 1011.4
16 14:56 W 13 10.00 Light Rain BKN012 OVC019 46 41 83% 41 29.84 1011.3
16 13:56 W 10 10.00 Overcast OVC014 45 41 86% 40 29.84 1011.2
16 12:56 W 9 10.00 Overcast OVC012 45 42.1 90% 41 29.83 1011.0
16 10:56 NW 12 9.00 Light Rain BKN006 OVC009 43 42.1 97% 37 29.83 1010.7
Date Time (akdt) Wind (mph) Vis. (mi.) Weather Sky Cond. Air Dwpt Max. Min. Relative Humidity Wind Chill (°F) Heat Index (°F) altimeter (in) sea level (mb) 1 hr 3 hr 6 hr
6 hour
Temperature (ºF) Pressure Precipitation (in)